Location: El Chorro
(10.0985°N, 67.3542°W)
Time: 18:52:50
(UTC+00:00)

SL-4 R/B - Pass Details

Date: 15 November 2025
Orbit: 386 x 526 km, 51.6° (Epoch: 06 December)

Event Time Altitude Azimuth Distance (km) Brightness Sun altitude
Rises 23:14:28 0° 332° (NNW) 2,471 5.5 -17.4°
Reaches altitude 10° 23:16:37 10° 337° (NNW) 1,624 4.5 -17.9°
Enters shadow 23:20:01 48° 44° (NE) 635 1.9 -18.7°
